C/2016 T1 ( Matheny )

Japanese version
Home page
Updated on May 20, 2017

---------------------------------------------------------------------

* Profile

Discovery Date October 6, 2016
Magnitude 18.4 mag
Discoverer Rose G. Matheny (Mount Lemmon Survey)

* Pictures

* Orbital Elements

Epoch 2017 Feb. 16.0 TT = JDT 2457800.5
T 2017 Feb. 1.65725 TT                                  MPCW
q   2.2999991            (2000.0)            P               Q
z  +0.0079402      Peri.  137.34934     -0.04817465     -0.76811684
 +/-0.0000227      Node    56.23059     -0.98921446     -0.05183581
e   0.9817375      Incl.  129.81775     +0.13832556     -0.63820809
From 113 observations 2016 Oct. 6-2017 May 19, mean residual 0".5.

* Magnitudes Graph

        m1 = 11.5 + 5 log d + 15.0 log r(t + 80)

        * Gray curve is:  m1 = 12.5 + 5 log d + 10.0 log r

---------------------------------------------------------------------

The orbital elements are published on M.P.E.C. 2017-K13.
The magnitudes graphs are made with Comet for Windows.

---------------------------------------------------------------------

Copyright(C) Seiichi Yoshida (comet@aerith.net). All rights reserved.